When you browse on this site, cookies collect data to enhance your experience and personalize the content and advertising you see.
Visit our Privacy Policy to learn more. By continuing to use the site, you agree to this use of cookies and data.
  • In Deutschland
  • Länderverzeichnis
  • Für 7 Tage
  • Wassertemperatur
  • Wetterkarte
  • Widgets
  • user-avatar
    Anmelden

    Stündliche Wetter Kuvaeva

    Heute, 16 Oktober, Mittwoch

    Zeit Temperatur Niederschläge Wind Luftdruck Luftfeuchtigkeit
    00:00 +3°C° 0 mm 2 m/S 740 mmHg 92%
    01:00 +1°C° 0 mm 3 m/S 740 mmHg 93%
    02:00 +1°C° 0 mm 3 m/S 740 mmHg 92%
    03:00 +1°C° 0 mm 3 m/S 740 mmHg 92%
    04:00 0°C° 0 mm 3 m/S 741 mmHg 91%
    05:00 0°C° 0 mm 3 m/S 741 mmHg 91%
    06:00 -1°C° 0 mm 4 m/S 741 mmHg 91%
    07:00 -1°C° 0 mm 4 m/S 742 mmHg 90%
    08:00 -1°C° 0 mm 4 m/S 742 mmHg 92%
    09:00 0°C° 0 mm 5 m/S 743 mmHg 93%
    10:00 0°C° 0 mm 5 m/S 743 mmHg 95%
    11:00 0°C° 0.2 mm 5 m/S 743 mmHg 95%
    12:00 0°C° 0.2 mm 5 m/S 744 mmHg 95%
    13:00 -1°C° 0.2 mm 6 m/S 744 mmHg 95%
    14:00 -1°C° 0 mm 6 m/S 745 mmHg 91%
    15:00 +1°C° 0 mm 5 m/S 745 mmHg 87%
    16:00 +1°C° 0 mm 5 m/S 746 mmHg 84%
    17:00 +1°C° 0 mm 5 m/S 746 mmHg 84%
    18:00 0°C° 0 mm 5 m/S 747 mmHg 85%
    19:00 0°C° 0 mm 4 m/S 747 mmHg 86%
    20:00 0°C° 0 mm 5 m/S 748 mmHg 86%
    21:00 0°C° 0 mm 5 m/S 748 mmHg 87%
    22:00 0°C° 0 mm 5 m/S 749 mmHg 87%
    23:00 -1°C° 0 mm 5 m/S 749 mmHg 86%

    Morgen, 17 Oktober, Donnerstag

    Zeit Temperatur Niederschläge Wind Luftdruck Luftfeuchtigkeit
    00:00 -1°C° 0 mm 5 m/S 749 mmHg 86%
    01:00 -2°C° 0 mm 5 m/S 750 mmHg 85%
    02:00 -2°C° 0 mm 5 m/S 750 mmHg 85%
    03:00 -2°C° 0 mm 5 m/S 751 mmHg 84%
    04:00 -2°C° 0 mm 4 m/S 752 mmHg 84%
    05:00 -2°C° 0 mm 4 m/S 752 mmHg 84%
    06:00 -2°C° 0 mm 4 m/S 752 mmHg 84%
    07:00 -2°C° 0 mm 4 m/S 752 mmHg 83%
    08:00 -2°C° 0 mm 4 m/S 752 mmHg 79%
    09:00 -1°C° 0 mm 5 m/S 753 mmHg 75%
    10:00 0°C° 0 mm 5 m/S 753 mmHg 71%
    11:00 +1°C° 0 mm 5 m/S 753 mmHg 69%
    12:00 +1°C° 0 mm 5 m/S 753 mmHg 67%
    13:00 +1°C° 0 mm 5 m/S 753 mmHg 66%
    14:00 +1°C° 0 mm 4 m/S 753 mmHg 67%
    15:00 0°C° 0 mm 4 m/S 753 mmHg 68%
    16:00 +1°C° 0 mm 3 m/S 753 mmHg 69%
    17:00 +1°C° 0 mm 3 m/S 753 mmHg 71%
    18:00 0°C° 0 mm 3 m/S 753 mmHg 74%
    19:00 +1°C° 0 mm 2 m/S 753 mmHg 76%
    20:00 +1°C° 0 mm 2 m/S 753 mmHg 79%
    21:00 -1°C° 0 mm 2 m/S 753 mmHg 82%
    22:00 -1°C° 0 mm 3 m/S 752 mmHg 86%
    23:00 -1°C° 0.3 mm 2 m/S 752 mmHg 90%

    übermorgen, 18 Oktober, Freitag

    Zeit Temperatur Niederschläge Wind Luftdruck Luftfeuchtigkeit
    00:00 -1°C° 0.3 mm 2 m/S 751 mmHg 93%
    01:00 -1°C° 0.3 mm 2 m/S 751 mmHg 97%
    02:00 -1°C° 0.3 mm 2 m/S 751 mmHg 97%
    03:00 -1°C° 0.3 mm 2 m/S 750 mmHg 97%
    04:00 -1°C° 0.3 mm 2 m/S 750 mmHg 97%
    05:00 -1°C° 0 mm 2 m/S 750 mmHg 97%
    06:00 -1°C° 0 mm 2 m/S 749 mmHg 97%
    07:00 +2°C° 0 mm 1 m/S 749 mmHg 97%
    08:00 +1°C° 0 mm 2 m/S 749 mmHg 97%
    09:00 +1°C° 0 mm 2 m/S 748 mmHg 97%
    10:00 +1°C° 0 mm 2 m/S 748 mmHg 97%
    11:00 +1°C° 0.1 mm 2 m/S 748 mmHg 97%
    12:00 +1°C° 0.1 mm 2 m/S 748 mmHg 97%
    13:00 0°C° 0.1 mm 3 m/S 748 mmHg 96%
    14:00 0°C° 0.4 mm 3 m/S 748 mmHg 97%
    15:00 0°C° 0.4 mm 3 m/S 748 mmHg 97%
    16:00 -1°C° 0.4 mm 4 m/S 748 mmHg 97%
    17:00 -1°C° 0.1 mm 4 m/S 748 mmHg 97%
    18:00 -1°C° 0.1 mm 4 m/S 749 mmHg 96%
    19:00 -1°C° 0.1 mm 4 m/S 749 mmHg 96%
    20:00 -2°C° 0 mm 5 m/S 750 mmHg 93%
    21:00 -2°C° 0 mm 5 m/S 750 mmHg 91%
    22:00 -2°C° 0 mm 5 m/S 751 mmHg 88%
    23:00 -2°C° 0 mm 5 m/S 751 mmHg 88%

    19 Oktober, Samstag

    Zeit Temperatur Niederschläge Wind Luftdruck Luftfeuchtigkeit
    00:00 -4°C° 0 mm 5 m/S 752 mmHg 89%
    01:00 -5°C° 0 mm 5 m/S 752 mmHg 89%
    02:00 -5°C° 0 mm 5 m/S 753 mmHg 87%
    03:00 -5°C° 0 mm 5 m/S 754 mmHg 85%
    04:00 -5°C° 0 mm 5 m/S 754 mmHg 83%
    05:00 -5°C° 0 mm 4 m/S 755 mmHg 84%
    06:00 -5°C° 0 mm 4 m/S 755 mmHg 85%
    07:00 -7°C° 0 mm 4 m/S 756 mmHg 85%
    08:00 -5°C° 0 mm 4 m/S 756 mmHg 81%
    09:00 -4°C° 0 mm 4 m/S 756 mmHg 77%
    10:00 -4°C° 0 mm 4 m/S 757 mmHg 73%
    11:00 -2°C° 0 mm 3 m/S 757 mmHg 70%
    12:00 -2°C° 0 mm 3 m/S 757 mmHg 68%
    13:00 -1°C° 0 mm 3 m/S 758 mmHg 65%
    14:00 -2°C° 0 mm 2 m/S 758 mmHg 67%
    15:00 -2°C° 0 mm 2 m/S 758 mmHg 70%
    16:00 -2°C° 0 mm 2 m/S 758 mmHg 72%
    17:00 -1°C° 0 mm 1 m/S 759 mmHg 74%
    18:00 -1°C° 0 mm 1 m/S 759 mmHg 75%
    19:00 -2°C° 0 mm 1 m/S 759 mmHg 77%
    20:00 -2°C° 0 mm 1 m/S 760 mmHg 77%
    21:00 -2°C° 0 mm 1 m/S 760 mmHg 77%
    22:00 -3°C° 0 mm 0 m/S 760 mmHg 77%
    23:00 -2°C° 0 mm 1 m/S 760 mmHg 77%

    20 Oktober, Sonntag

    Zeit Temperatur Niederschläge Wind Luftdruck Luftfeuchtigkeit
    00:00 -2°C° 0 mm 1 m/S 760 mmHg 78%
    01:00 -2°C° 0 mm 1 m/S 760 mmHg 79%
    02:00 -2°C° 0 mm 1 m/S 760 mmHg 80%
    03:00 -2°C° 0 mm 1 m/S 760 mmHg 82%
    04:00 -5°C° 0 mm 2 m/S 760 mmHg 83%
    05:00 -5°C° 0 mm 2 m/S 760 mmHg 84%
    06:00 -5°C° 0 mm 2 m/S 760 mmHg 84%
    07:00 -6°C° 0 mm 3 m/S 760 mmHg 85%
    08:00 -5°C° 0 mm 3 m/S 760 mmHg 79%
    09:00 -4°C° 0 mm 4 m/S 760 mmHg 74%
    10:00 -2°C° 0 mm 5 m/S 760 mmHg 68%
    11:00 -2°C° 0 mm 5 m/S 759 mmHg 66%
    12:00 -1°C° 0 mm 5 m/S 759 mmHg 64%
    13:00 -1°C° 0 mm 5 m/S 758 mmHg 63%
    14:00 -1°C° 0 mm 5 m/S 758 mmHg 66%
    15:00 -2°C° 0 mm 5 m/S 758 mmHg 69%
    16:00 -2°C° 0 mm 4 m/S 757 mmHg 72%
    17:00 -2°C° 0 mm 4 m/S 757 mmHg 74%
    18:00 -2°C° 0 mm 4 m/S 757 mmHg 75%
    19:00 -3°C° 0 mm 4 m/S 757 mmHg 77%
    20:00 -2°C° 0 mm 5 m/S 756 mmHg 79%
    21:00 -2°C° 0 mm 5 m/S 756 mmHg 80%
    22:00 -2°C° 0 mm 5 m/S 756 mmHg 81%
    23:00 -2°C° 0 mm 5 m/S 755 mmHg 81%

    21 Oktober, Montag

    Zeit Temperatur Niederschläge Wind Luftdruck Luftfeuchtigkeit
    00:00 -2°C° 0 mm 5 m/S 755 mmHg 80%
    01:00 -2°C° 0 mm 5 m/S 754 mmHg 79%
    02:00 -2°C° 0.2 mm 5 m/S 754 mmHg 83%
    03:00 -2°C° 0.2 mm 5 m/S 753 mmHg 87%
    04:00 -2°C° 0.2 mm 5 m/S 753 mmHg 90%
    05:00 -2°C° 0.8 mm 5 m/S 753 mmHg 92%
    06:00 -1°C° 0.8 mm 5 m/S 753 mmHg 95%
    07:00 -1°C° 0.8 mm 5 m/S 752 mmHg 97%
    08:00 0°C° 0.1 mm 4 m/S 752 mmHg 97%
    09:00 0°C° 0.1 mm 4 m/S 752 mmHg 97%
    10:00 +1°C° 0.1 mm 3 m/S 753 mmHg 97%
    11:00 +2°C° 0 mm 3 m/S 753 mmHg 95%
    12:00 +4°C° 0 mm 2 m/S 753 mmHg 93%
    13:00 +5°C° 0 mm 2 m/S 753 mmHg 91%
    14:00 +4°C° 0 mm 2 m/S 753 mmHg 92%
    15:00 +3°C° 0 mm 2 m/S 754 mmHg 92%
    16:00 +3°C° 0 mm 2 m/S 754 mmHg 93%
    17:00 +2°C° 0 mm 2 m/S 754 mmHg 92%
    18:00 +2°C° 0 mm 2 m/S 754 mmHg 92%
    19:00 +3°C° 0 mm 1 m/S 754 mmHg 91%
    20:00 +2°C° 0 mm 1 m/S 754 mmHg 91%
    21:00 +2°C° 0 mm 1 m/S 754 mmHg 91%
    22:00 +2°C° 0 mm 1 m/S 754 mmHg 91%
    23:00 +2°C° 0 mm 1 m/S 754 mmHg 92%
    Mehr zeigen